When you browse on this site, cookies collect data to enhance your experience and personalize the content and advertising you see.
Visit our Privacy Policy to learn more. By continuing to use the site, you agree to this use of cookies and data.
  • In United Kingdom
  • List of Countries
  • For 7 days
  • Water Temperature
  • Satellite Maps
  • Weather Map
  • Weather Widgets
  • user-avatar
    Login

    Hourly Weather Durres

    Today, 20 April, Saturday

    Time Temperature Precipitation Wind Pressure Humidity
    00:00 +12°C° 0 mm 2 mps 767 mmHg 79%
    01:00 +12°C° 0 mm 2 mps 767 mmHg 77%
    02:00 +12°C° 0 mm 2 mps 767 mmHg 75%
    03:00 +12°C° 0 mm 2 mps 766 mmHg 74%
    04:00 +12°C° 0 mm 2 mps 766 mmHg 72%
    05:00 +13°C° 0 mm 2 mps 766 mmHg 68%
    06:00 +14°C° 0 mm 2 mps 766 mmHg 63%
    07:00 +16°C° 0 mm 2 mps 766 mmHg 59%
    08:00 +17°C° 0 mm 2 mps 766 mmHg 52%
    09:00 +19°C° 0 mm 3 mps 766 mmHg 46%
    10:00 +21°C° 0 mm 4 mps 766 mmHg 39%
    11:00 +22°C° 0 mm 4 mps 766 mmHg 37%
    12:00 +22°C° 0 mm 5 mps 765 mmHg 36%
    13:00 +23°C° 0 mm 6 mps 765 mmHg 35%
    14:00 +22°C° 0 mm 6 mps 765 mmHg 39%
    15:00 +21°C° 0 mm 6 mps 765 mmHg 43%
    16:00 +21°C° 0 mm 6 mps 765 mmHg 47%
    17:00 +19°C° 0 mm 6 mps 765 mmHg 55%
    18:00 +16°C° 0 mm 6 mps 765 mmHg 63%
    19:00 +15°C° 0 mm 6 mps 765 mmHg 70%
    20:00 +14°C° 0 mm 5 mps 766 mmHg 68%
    21:00 +14°C° 0 mm 4 mps 766 mmHg 65%
    22:00 +13°C° 0 mm 3 mps 766 mmHg 63%
    23:00 +13°C° 0 mm 3 mps 766 mmHg 63%

    Tomorrow, 21 April, Sunday

    Time Temperature Precipitation Wind Pressure Humidity
    00:00 +13°C° 0 mm 3 mps 766 mmHg 63%
    01:00 +12°C° 0 mm 3 mps 766 mmHg 64%
    02:00 +12°C° 0 mm 3 mps 766 mmHg 64%
    03:00 +12°C° 0 mm 3 mps 766 mmHg 64%
    04:00 +11°C° 0 mm 3 mps 766 mmHg 64%
    05:00 +13°C° 0 mm 4 mps 766 mmHg 62%
    06:00 +14°C° 0 mm 4 mps 766 mmHg 60%
    07:00 +15°C° 0 mm 4 mps 766 mmHg 57%
    08:00 +17°C° 0 mm 4 mps 766 mmHg 56%
    09:00 +18°C° 0 mm 4 mps 766 mmHg 54%
    10:00 +19°C° 0 mm 4 mps 766 mmHg 53%
    11:00 +20°C° 0 mm 5 mps 766 mmHg 53%
    12:00 +20°C° 0 mm 6 mps 765 mmHg 53%
    13:00 +21°C° 0 mm 6 mps 765 mmHg 53%
    14:00 +20°C° 0.1 mm 6 mps 765 mmHg 58%
    15:00 +20°C° 0.1 mm 6 mps 764 mmHg 64%
    16:00 +19°C° 0.1 mm 6 mps 764 mmHg 69%
    17:00 +16°C° 0 mm 6 mps 764 mmHg 76%
    18:00 +15°C° 0 mm 6 mps 764 mmHg 83%
    19:00 +14°C° 0 mm 6 mps 764 mmHg 90%
    20:00 +13°C° 0 mm 5 mps 764 mmHg 91%
    21:00 +13°C° 0 mm 5 mps 764 mmHg 91%
    22:00 +12°C° 0 mm 4 mps 764 mmHg 92%
    23:00 +12°C° 0 mm 4 mps 764 mmHg 91%

    Day after tomorrow, 22 April, Monday

    Time Temperature Precipitation Wind Pressure Humidity
    00:00 +12°C° 0 mm 4 mps 764 mmHg 91%
    01:00 +12°C° 0 mm 3 mps 764 mmHg 90%
    02:00 +12°C° 0 mm 3 mps 764 mmHg 90%
    03:00 +11°C° 0 mm 3 mps 763 mmHg 90%
    04:00 +11°C° 0 mm 3 mps 763 mmHg 89%
    05:00 +12°C° 0 mm 3 mps 763 mmHg 83%
    06:00 +14°C° 0 mm 3 mps 763 mmHg 77%
    07:00 +16°C° 0 mm 3 mps 763 mmHg 71%
    08:00 +17°C° 0 mm 3 mps 762 mmHg 64%
    09:00 +19°C° 0 mm 3 mps 762 mmHg 57%
    10:00 +21°C° 0 mm 3 mps 762 mmHg 51%
    11:00 +21°C° 0 mm 3 mps 761 mmHg 50%
    12:00 +22°C° 0 mm 4 mps 761 mmHg 49%
    13:00 +23°C° 0 mm 4 mps 761 mmHg 49%
    14:00 +22°C° 0 mm 5 mps 760 mmHg 55%
    15:00 +21°C° 0 mm 6 mps 760 mmHg 61%
    16:00 +20°C° 0 mm 8 mps 760 mmHg 66%
    17:00 +18°C° 0 mm 8 mps 759 mmHg 72%
    18:00 +17°C° 0 mm 8 mps 759 mmHg 77%
    19:00 +16°C° 0 mm 9 mps 759 mmHg 82%
    20:00 +16°C° 0.1 mm 7 mps 759 mmHg 82%
    21:00 +16°C° 0.1 mm 5 mps 759 mmHg 82%
    22:00 +17°C° 0.1 mm 3 mps 759 mmHg 82%
    23:00 +16°C° 0 mm 3 mps 759 mmHg 82%

    23 April, Tuesday

    Time Temperature Precipitation Wind Pressure Humidity
    00:00 +16°C° 0 mm 3 mps 759 mmHg 81%
    01:00 +14°C° 0 mm 3 mps 758 mmHg 81%
    02:00 +14°C° 0.1 mm 4 mps 758 mmHg 79%
    03:00 +14°C° 0.1 mm 5 mps 758 mmHg 78%
    04:00 +14°C° 0.1 mm 5 mps 758 mmHg 76%
    05:00 +15°C° 0.1 mm 5 mps 758 mmHg 72%
    06:00 +16°C° 0.1 mm 5 mps 758 mmHg 68%
    07:00 +17°C° 0.1 mm 5 mps 758 mmHg 64%
    08:00 +20°C° 0 mm 6 mps 758 mmHg 56%
    09:00 +22°C° 0 mm 6 mps 758 mmHg 49%
    10:00 +24°C° 0 mm 7 mps 758 mmHg 41%
    11:00 +26°C° 0 mm 9 mps 758 mmHg 40%
    12:00 +26°C° 0 mm 10 mps 758 mmHg 39%
    13:00 +27°C° 0 mm 12 mps 758 mmHg 39%
    14:00 +26°C° 0 mm 12 mps 758 mmHg 42%
    15:00 +24°C° 0 mm 12 mps 758 mmHg 44%
    16:00 +24°C° 0 mm 12 mps 759 mmHg 47%
    17:00 +22°C° 0 mm 12 mps 759 mmHg 51%
    18:00 +21°C° 0 mm 11 mps 759 mmHg 56%
    19:00 +18°C° 0 mm 10 mps 760 mmHg 60%
    20:00 +17°C° 0.2 mm 9 mps 760 mmHg 62%
    21:00 +17°C° 0.2 mm 7 mps 761 mmHg 63%
    22:00 +17°C° 0.2 mm 5 mps 761 mmHg 65%
    23:00 +17°C° 0 mm 4 mps 761 mmHg 66%

    24 April, Wednesday

    Time Temperature Precipitation Wind Pressure Humidity
    00:00 +17°C° 0 mm 4 mps 762 mmHg 68%
    01:00 +16°C° 0 mm 3 mps 762 mmHg 70%
    02:00 +16°C° 0 mm 3 mps 762 mmHg 70%
    03:00 +14°C° 0 mm 3 mps 762 mmHg 71%
    04:00 +14°C° 0 mm 3 mps 762 mmHg 72%
    05:00 +16°C° 0 mm 3 mps 762 mmHg 69%
    06:00 +18°C° 0 mm 3 mps 762 mmHg 66%
    07:00 +19°C° 0 mm 3 mps 762 mmHg 62%
    08:00 +21°C° 0 mm 2 mps 762 mmHg 54%
    09:00 +24°C° 0 mm 2 mps 762 mmHg 46%
    10:00 +27°C° 0 mm 1 mps 762 mmHg 38%
    11:00 +27°C° 0 mm 2 mps 762 mmHg 37%
    12:00 +28°C° 0 mm 2 mps 762 mmHg 36%
    13:00 +29°C° 0 mm 3 mps 762 mmHg 35%
    14:00 +28°C° 0 mm 2 mps 762 mmHg 39%
    15:00 +27°C° 0 mm 2 mps 761 mmHg 43%
    16:00 +26°C° 0 mm 2 mps 761 mmHg 47%
    17:00 +24°C° 0 mm 2 mps 761 mmHg 50%
    18:00 +21°C° 0 mm 2 mps 762 mmHg 53%
    19:00 +19°C° 0 mm 2 mps 762 mmHg 56%
    20:00 +19°C° 0 mm 2 mps 762 mmHg 57%
    21:00 +20°C° 0 mm 1 mps 762 mmHg 58%
    22:00 +19°C° 0 mm 1 mps 763 mmHg 58%
    23:00 +19°C° 0 mm 1 mps 763 mmHg 62%

    25 April, Thursday

    Time Temperature Precipitation Wind Pressure Humidity
    00:00 +19°C° 0 mm 1 mps 763 mmHg 65%
    01:00 +19°C° 0 mm 1 mps 762 mmHg 69%
    02:00 +19°C° 0 mm 1 mps 762 mmHg 71%
    03:00 +18°C° 0 mm 1 mps 762 mmHg 73%
    04:00 +18°C° 0 mm 1 mps 762 mmHg 76%
    05:00 +19°C° 0 mm 2 mps 762 mmHg 72%
    06:00 +20°C° 0 mm 2 mps 762 mmHg 69%
    07:00 +21°C° 0 mm 2 mps 762 mmHg 65%
    08:00 +24°C° 0 mm 2 mps 761 mmHg 55%
    09:00 +27°C° 0 mm 1 mps 761 mmHg 46%
    10:00 +29°C° 0 mm 1 mps 761 mmHg 36%
    11:00 +29°C° 0 mm 2 mps 761 mmHg 37%
    12:00 +30°C° 0 mm 3 mps 760 mmHg 37%
    13:00 +30°C° 0 mm 3 mps 760 mmHg 37%
    14:00 +29°C° 0 mm 3 mps 760 mmHg 41%
    15:00 +28°C° 0 mm 2 mps 759 mmHg 46%
    16:00 +27°C° 0 mm 2 mps 759 mmHg 51%
    17:00 +25°C° 0 mm 2 mps 759 mmHg 56%
    18:00 +24°C° 0 mm 2 mps 759 mmHg 61%
    19:00 +21°C° 0 mm 2 mps 759 mmHg 66%
    20:00 +20°C° 0 mm 2 mps 759 mmHg 66%
    21:00 +20°C° 0 mm 2 mps 759 mmHg 66%
    22:00 +20°C° 0 mm 2 mps 759 mmHg 67%
    23:00 +19°C° 0 mm 3 mps 759 mmHg 69%
    Show more